EW6183 Weather Reports


time (UTC)temp
F
wind
direction
speed
knots
gust
knots
rain 1hr
in
rain 24hr
in
rain mn
in
humidity
%
barometer
mb
20260505093010 55 159 0.0 1.7 0.00 0.00 0.00 81 1011.6
20260505091513 55 213 0.0 1.7 0.00 0.00 0.00 81 1011.8
20260505090008 56 221 0.0 1.7 0.00 0.00 0.00 81 1011.9
20260505084508 56 286 0.9 3.5 0.00 0.00 0.00 81 1011.8
20260505083007 56 192 0.0 1.7 0.00 0.00 0.00 81 1011.8
20260505081506 55 155 0.0 2.6 0.00 0.00 0.00 81 1011.7
20260505080005 55 246 0.0 2.6 0.00 0.00 0.00 81 1011.7
20260505074505 55 167 0.9 4.3 0.00 0.00 0.00 81 1011.7
20260505073019 55 226 0.0 1.7 0.00 0.00 0.00 81 1011.6
20260505071504 55 226 0.0 2.6 0.00 0.00 0.00 80 1011.6
20260505070005 55 219 0.0 1.7 0.00 0.00 0.00 80 1011.5
20260505064502 56 128 0.0 1.7 0.00 0.00 0.00 79 1011.5
20260505063002 56 136 0.0 4.3 0.00 0.00 0.00 80 1011.5
20260505061600 55 194 0.0 2.6 0.00 0.00 0.00 80 1011.6
20260505060057 55 180 0.0 6.1 0.00 0.00 0.00 80 1011.7
20260505054557 55 176 0.0 2.6 0.00 0.00 0.00 79 1011.7
20260505053056 54 169 0.0 3.5 0.00 0.00 0.00 79 1011.8
20260505051555 55 126 0.0 2.6 0.00 0.00 0.00 78 1011.8
20260505041549 55 193 0.0 1.7 0.00 0.00 0.00 76 1012.1
20260505040047 55 172 0.9 2.6 0.00 0.00 0.00 76 1012.1
20260505034549 55 91 0.0 2.6 0.00 0.00 0.00 76 1012.1
20260505033045 55 160 0.0 2.6 0.00 0.00 0.00 76 1012.2
20260505031549 55 151 0.0 5.2 0.00 0.00 0.00 75 1012.3
20260505030045 55 182 0.0 0.9 0.00 0.00 0.00 75 1012.4
20260505024543 55 182 0.0 0.9 0.00 0.00 0.00 74 1012.4
20260505023049 56 182 0.0 1.7 0.00 0.00 0.00 73 1012.5
20260505021544 56 134 0.0 3.5 0.00 0.00 0.00 72 1012.6
20260505020043 57 159 0.0 1.7 0.00 0.00 0.00 71 1012.6
20260505014542 57 123 0.0 1.7 0.00 0.00 0.00 69 1012.6
20260505013040 58 182 0.0 3.5 0.00 0.00 0.00 67 1012.5
20260505011543 59 148 0.0 3.5 0.00 0.00 0.00 65 1012.3
20260505004539 60 188 0.9 2.6 0.00 0.00 0.00 59 1011.9
20260505003043 61 163 0.9 4.3 0.00 0.00 0.00 58 1011.8
20260505001537 62 165 0.0 1.7 0.00 0.00 0.00 56 1011.7
20260505000044 64 40 0.0 3.5 0.00 0.00 0.00 54 1011.3
20260504234536 65 163 0.0 6.1 0.00 0.00 0.00 51 1011.2
20260504233036 66 236 0.0 5.2 0.00 0.00 0.00 49 1011.1
20260504231538 67 202 1.7 6.1 0.00 0.00 0.00 49 1010.9
20260504230041 69 181 2.6 8.7 0.00 0.00 0.00 43 1010.8
20260504224535 70 238 1.7 7.0 0.00 0.00 0.00 36 1010.7
20260504223033 71 336 1.7 6.1 0.00 0.00 0.00 36 1010.5
20260504221545 71 151 1.7 5.2 0.00 0.00 0.00 35 1010.5
20260504220034 72 219 0.9 6.1 0.00 0.00 0.00 33 1010.7
20260504214531 73 301 2.6 4.3 0.00 0.00 0.00 32 1010.6
20260504213042 73 348 2.6 5.2 0.00 0.00 0.00 32 1010.6
20260504211533 74 181 1.7 6.1 0.00 0.00 0.00 31 1010.8
20260504210027 74 227 1.7 9.6 0.00 0.00 0.00 32 1010.7
20260504204529 74 227 0.9 6.1 0.00 0.00 0.00 32 1010.7
20260504203035 74 191 1.7 9.6 0.00 0.00 0.00 32 1010.6
20260504201525 74 165 1.7 6.1 0.00 0.00 0.00 31 1010.7
20260504200021 74 250 1.7 7.0 0.00 0.00 0.00 31 1011.0
20260504194528 73 332 1.7 10.4 0.00 0.00 0.00 34 1011.1
20260504193020 74 213 1.7 7.0 0.00 0.00 0.00 34 1011.3
20260504191529 74 157 0.9 7.8 0.00 0.00 0.00 33 1011.5
20260504190014 73 290 3.5 12.2 0.00 0.00 0.00 33 1012.0
20260504184518 73 147 3.5 7.8 0.00 0.00 0.00 32 1012.0
20260504183010 72 275 2.6 7.0 0.00 0.00 0.00 33 1012.1
20260504181513 73 250 3.5 7.8 0.00 0.00 0.00 36 1012.5
20260504180007 72 240 3.5 10.4 0.00 0.00 0.00 34 1012.7
20260504174503 71 285 3.5 8.7 0.00 0.00 0.00 35 1012.9
20260504173002 71 208 3.5 8.7 0.00 0.00 0.00 36 1013.0
20260504171601 71 205 3.5 16.5 0.00 0.00 0.00 36 1013.1